Tracking 31033 objects as of 14-Jul-2025
HD Live streaming from Space Station
objects crossing your sky now

TDRS 10

Track TDRS 10 now!
TDRS 10 is classified as:


NORAD ID: 27566
Int'l Code: 2002-055A
Perigee: 35,763.4 km
Apogee: 35,826.5 km
Inclination: 9.4 °
Period: 1,436.2 minutes
Semi major axis: 42165 km
RCS: 5.0118 m2 (large)
Launch date: December 5, 2002
Source: United States (US)
Launch site: AIR FORCE EASTERN TEST RANGE (AFETR)

Tracking and communications with space shuttle, other missions.
Your satellite tracking list
Your tracking list is empty




NASA's NSSDC Master Catalog

Two Line Element Set (TLE):
1 27566U 02055A   25195.40674773 -.00000285  00000-0  00000-0 0  9994
2 27566   9.4309  45.7208 0007487 175.8023 168.1986  1.00267468 82846
Source of the keplerian elements: AFSPC